Home > Weather > Weymouth > Past weeks

Flag for United Kingdom Past Weather in Weymouth, England, United Kingdom — Yesterday and Last 2 Weeks

Now
67 °F

Mild.


Feels Like: 67 °F
Forecast: 61 / 68 °F
Wind: 12 mph from Southwest

Location: Isle Of Portland

Current Time: Jul 23, 2016 at 4:03:34 PM

Latest Report: Jul 23, 2016 at 3:00 PM


Visibility: 28 mi

Pressure: 30.17 "Hg

Humidity: 78%

Dew Point: 59 °F

Location of WeymouthLocation

Past Weather in Weymouth — Graph

°F

Weymouth Temperature Yesterday

Maximum temperature yesterday: 66 °F (at 3:00 PM)
Minimum temperature yesterday: 59 °F (at 6:00 AM)
Average temperature yesterday: 63 °F

High & Low Weather Summary for the Past Weeks

 TemperatureHumidityPressure
High70 °F (Jul 18, 1:00 PM)100% (Jul 10, 2:00 AM)30.37 "Hg (Jul 10, 2:00 AM)
Low55 °F (Jul 13, 5:00 AM)60% (Jul 13, 7:00 PM)29.72 "Hg (Jul 20, 6:00 AM)
Average62 °F87%30.08 "Hg
* Reported Jul 8 2:00 PM — Jul 23 2:00 PM, Weymouth, Weather by CustomWeather, © 2016

Note: Actual official high and low records may vary slightly from our data, if they occured in-between our weather recording intervals... More about our weather records

Advertising

Weymouth Weather History for the Previous 24 Hours

Scroll right to see more
 ConditionsComfort  
Time TempWeatherWind HumidityBarometerVisibility
2:00 PM
Sat, Jul 23
67 °FMild.10 mph84%30.17 "Hg14 mi
1:00 PM66 °FMild.9 mph88%30.18 "Hg10 mi
12:00 PM65 °FMild.6 mph85%30.18 "Hg16 mi
11:00 AM62 °FFog.5 mph95%30.18 "Hg7 mi
10:00 AM62 °FMild.3 mph100%30.16 "Hg6 mi
9:00 AM59 °FDuststorm.5 mph100%30.16 "Hg0 mi
8:00 AM60 °FDuststorm.2 mph100%30.14 "Hg0 mi
7:00 AM59 °FDuststorm.2 mph100%30.15 "Hg0 mi
6:00 AM59 °FDuststorm.1 mph100%30.14 "Hg0 mi
5:00 AM59 °FDuststorm.2 mph99%30.14 "Hg0 mi
4:00 AM60 °FCool.1 mph100%30.13 "Hg9 mi
3:00 AM62 °FFog.6 mph100%30.14 "Hg2 mi
2:00 AM61 °FFog.5 mph100%30.15 "Hg4 mi
1:00 AM62 °FFog.6 mph99%30.15 "Hg4 mi
12:00 AM62 °FFog.7 mph99%30.14 "Hg3 mi
11:00 PM
Fri, Jul 22
62 °FFog.7 mph99%30.13 "Hg4 mi
10:00 PM61 °FFog.7 mph98%30.14 "Hg4 mi
9:00 PM62 °FCool.10 mph95%30.13 "Hg10 mi
8:00 PM63 °FMild.7 mph88%30.13 "Hg22 mi
7:00 PM65 °FMild.8 mph82%30.12 "Hg25 mi
6:00 PM65 °FMild.8 mph77%30.11 "Hg22 mi
5:00 PM66 °FMild.8 mph75%30.12 "Hg28 mi
4:00 PM66 °FMild.9 mph81%30.12 "Hg16 mi
Weather by CustomWeather, © 2016

See weather overviewHow to use our weather pages